Voltar ao catálogo

STARLINK-2726

AtivoComunicaçõesVLEO
NORAD 48662·PAYLOAD·🇺🇸 United States

Lançado May 26, 2021 de Cape Canaveral Space Force Station

Loading…

Próximas Passagens (próximas 24 horas)

TLE

AtualizadoSource: CelesTrak SupGP

Época: Sep 14, 2026, 20:45 UTC

1 48662C 21044AA  26257.86506944 -.00026633  00000+0 -85638-3 0  2572
2 48662  53.1592 315.0376 0001276  81.5428 153.0468 15.31717293    19

Acompanhe STARLINK-2726 em tempo real com AllMySat

Download on the App Store